Location: Karaa?a�
(36.7158°N, 30.4165°E)
Time: 00:33:13
(UTC+00:00)

IRIDIUM 103 - Pass Details

Date: 09 April 2020
Orbit: 776 x 779 km, 86.4° (Epoch: 24 May)

Event Time Altitude Azimuth Distance (km) Brightness Sun altitude
Rises 17:18:55 0° 357° (N) 3,268 7.9 -10.7°
Reaches altitude 10° 17:21:17 10° 357° (N) 2,336 7.1 -11.2°
Maximum altitude 17:26:31 86° 269° (W) 785 4.4 -12.2°
Drops below altitude 10° 17:31:43 10° 181° (S) 2,318 6.6 -13.1°
Sets 17:34:03 0° 181° (S) 3,241 7.3 -13.6°
